EN

Hourly Weather Bolshie Saly

Today, 1 October, Thursday

Time Temperature Precipitation Wind Pressure Humidity
00:00 +16°C° 0 mm 10 mps 752 mmHg 38%
01:00 +15°C° 0 mm 9 mps 753 mmHg 41%
02:00 +15°C° 0 mm 8 mps 753 mmHg 44%
03:00 +13°C° 0 mm 9 mps 753 mmHg 49%
04:00 +13°C° 0.1 mm 9 mps 753 mmHg 51%
05:00 +13°C° 0.1 mm 8 mps 753 mmHg 52%
06:00 +13°C° 0.1 mm 8 mps 753 mmHg 53%
07:00 +15°C° 0 mm 9 mps 753 mmHg 49%
08:00 +16°C° 0 mm 9 mps 753 mmHg 46%
09:00 +17°C° 0 mm 10 mps 753 mmHg 41%
10:00 +18°C° 0 mm 10 mps 753 mmHg 36%
11:00 +19°C° 0 mm 11 mps 753 mmHg 32%
12:00 +22°C° 0 mm 11 mps 753 mmHg 27%
13:00 +22°C° 0 mm 10 mps 753 mmHg 26%
14:00 +23°C° 0 mm 10 mps 752 mmHg 24%
15:00 +23°C° 0 mm 10 mps 752 mmHg 23%
16:00 +23°C° 0 mm 9 mps 752 mmHg 23%
17:00 +22°C° 0 mm 8 mps 752 mmHg 24%
18:00 +22°C° 0 mm 7 mps 752 mmHg 25%
19:00 +21°C° 0 mm 8 mps 752 mmHg 27%
20:00 +21°C° 0 mm 8 mps 753 mmHg 28%
21:00 +19°C° 0 mm 9 mps 753 mmHg 30%
22:00 +18°C° 0 mm 9 mps 753 mmHg 33%
23:00 +17°C° 0 mm 8 mps 753 mmHg 37%

Tomorrow, 2 October, Friday

Time Temperature Precipitation Wind Pressure Humidity
00:00 +16°C° 0 mm 8 mps 753 mmHg 41%
01:00 +16°C° 0 mm 8 mps 753 mmHg 44%
02:00 +15°C° 0 mm 7 mps 754 mmHg 47%
03:00 +15°C° 0 mm 7 mps 754 mmHg 50%
04:00 +14°C° 0 mm 7 mps 754 mmHg 52%
05:00 +14°C° 0 mm 6 mps 754 mmHg 53%
06:00 +13°C° 0 mm 5 mps 754 mmHg 55%
07:00 +14°C° 0 mm 6 mps 754 mmHg 53%
08:00 +16°C° 0 mm 7 mps 754 mmHg 50%
09:00 +17°C° 0 mm 8 mps 755 mmHg 47%
10:00 +18°C° 0 mm 8 mps 755 mmHg 44%
11:00 +20°C° 0 mm 8 mps 755 mmHg 41%
12:00 +22°C° 0 mm 8 mps 755 mmHg 38%
13:00 +22°C° 0 mm 7 mps 755 mmHg 37%
14:00 +22°C° 0 mm 7 mps 755 mmHg 36%
15:00 +23°C° 0 mm 7 mps 755 mmHg 35%
16:00 +21°C° 0 mm 6 mps 755 mmHg 41%
17:00 +20°C° 0 mm 6 mps 755 mmHg 47%
18:00 +19°C° 0 mm 6 mps 756 mmHg 53%
19:00 +17°C° 0 mm 5 mps 756 mmHg 56%
20:00 +18°C° 0 mm 4 mps 756 mmHg 58%
21:00 +17°C° 0 mm 3 mps 757 mmHg 61%
22:00 +17°C° 0 mm 4 mps 757 mmHg 63%
23:00 +17°C° 0 mm 4 mps 757 mmHg 64%

Day after tomorrow, 3 October, Saturday

Time Temperature Precipitation Wind Pressure Humidity
00:00 +16°C° 0 mm 5 mps 757 mmHg 65%
01:00 +15°C° 0 mm 5 mps 757 mmHg 68%
02:00 +15°C° 0 mm 5 mps 757 mmHg 71%
03:00 +14°C° 0 mm 5 mps 758 mmHg 74%
04:00 +13°C° 0 mm 4 mps 758 mmHg 75%
05:00 +13°C° 0 mm 4 mps 758 mmHg 75%
06:00 +12°C° 0 mm 4 mps 758 mmHg 75%
07:00 +13°C° 0 mm 4 mps 758 mmHg 66%
08:00 +15°C° 0 mm 5 mps 758 mmHg 57%
09:00 +16°C° 0 mm 5 mps 759 mmHg 47%
10:00 +17°C° 0 mm 5 mps 759 mmHg 45%
11:00 +20°C° 0 mm 5 mps 759 mmHg 43%
12:00 +21°C° 0 mm 6 mps 759 mmHg 40%
13:00 +21°C° 0 mm 5 mps 759 mmHg 39%
14:00 +21°C° 0 mm 5 mps 758 mmHg 38%
15:00 +21°C° 0 mm 5 mps 758 mmHg 37%
16:00 +20°C° 0 mm 5 mps 758 mmHg 40%
17:00 +19°C° 0 mm 5 mps 758 mmHg 44%
18:00 +18°C° 0 mm 4 mps 758 mmHg 47%
19:00 +17°C° 0 mm 4 mps 759 mmHg 48%
20:00 +15°C° 0 mm 4 mps 759 mmHg 50%
21:00 +13°C° 0 mm 3 mps 759 mmHg 51%
22:00 +13°C° 0 mm 3 mps 759 mmHg 51%
23:00 +13°C° 0 mm 3 mps 759 mmHg 52%

4 October, Sunday

Time Temperature Precipitation Wind Pressure Humidity
00:00 +13°C° 0 mm 3 mps 759 mmHg 52%
01:00 +12°C° 0 mm 3 mps 759 mmHg 50%
02:00 +12°C° 0 mm 3 mps 759 mmHg 48%
03:00 +12°C° 0 mm 3 mps 759 mmHg 47%
04:00 +12°C° 0 mm 3 mps 759 mmHg 49%
05:00 +12°C° 0 mm 3 mps 759 mmHg 51%
06:00 +12°C° 0 mm 3 mps 760 mmHg 53%
07:00 +13°C° 0 mm 4 mps 760 mmHg 50%
08:00 +15°C° 0 mm 5 mps 760 mmHg 47%
09:00 +17°C° 0 mm 6 mps 760 mmHg 44%
10:00 +19°C° 0 mm 6 mps 760 mmHg 38%
11:00 +21°C° 0 mm 6 mps 760 mmHg 32%
12:00 +22°C° 0 mm 6 mps 760 mmHg 25%
13:00 +22°C° 0 mm 6 mps 760 mmHg 24%
14:00 +22°C° 0 mm 6 mps 760 mmHg 23%
15:00 +22°C° 0 mm 6 mps 759 mmHg 21%
16:00 +21°C° 0 mm 5 mps 760 mmHg 21%
17:00 +20°C° 0 mm 5 mps 760 mmHg 20%
18:00 +20°C° 0 mm 4 mps 760 mmHg 20%
19:00 +19°C° 0 mm 4 mps 760 mmHg 20%
20:00 +17°C° 0 mm 5 mps 760 mmHg 20%
21:00 +16°C° 0 mm 5 mps 761 mmHg 20%
22:00 +15°C° 0 mm 5 mps 761 mmHg 21%
23:00 +15°C° 0 mm 5 mps 761 mmHg 22%

5 October, Monday

Time Temperature Precipitation Wind Pressure Humidity
00:00 +14°C° 0 mm 5 mps 761 mmHg 23%
01:00 +13°C° 0 mm 5 mps 761 mmHg 23%
02:00 +13°C° 0 mm 5 mps 761 mmHg 24%
03:00 +12°C° 0 mm 5 mps 761 mmHg 25%
04:00 +12°C° 0 mm 5 mps 761 mmHg 27%
05:00 +10°C° 0 mm 5 mps 761 mmHg 29%
06:00 +10°C° 0 mm 5 mps 762 mmHg 30%
07:00 +12°C° 0 mm 5 mps 762 mmHg 27%
08:00 +14°C° 0 mm 6 mps 762 mmHg 25%
09:00 +16°C° 0 mm 6 mps 762 mmHg 22%
10:00 +19°C° 0 mm 6 mps 762 mmHg 19%
11:00 +21°C° 0 mm 6 mps 762 mmHg 16%
12:00 +23°C° 0 mm 6 mps 762 mmHg 13%
13:00 +24°C° 0 mm 7 mps 762 mmHg 13%
14:00 +24°C° 0 mm 7 mps 762 mmHg 13%
15:00 +24°C° 0 mm 7 mps 761 mmHg 12%
16:00 +23°C° 0 mm 6 mps 761 mmHg 15%
17:00 +21°C° 0 mm 5 mps 761 mmHg 19%
18:00 +19°C° 0 mm 4 mps 761 mmHg 22%
19:00 +18°C° 0 mm 4 mps 761 mmHg 27%
20:00 +17°C° 0 mm 4 mps 761 mmHg 32%
21:00 +15°C° 0 mm 5 mps 761 mmHg 37%
22:00 +14°C° 0 mm 5 mps 761 mmHg 41%
23:00 +14°C° 0 mm 5 mps 761 mmHg 45%

6 October, Tuesday

Time Temperature Precipitation Wind Pressure Humidity
00:00 +13°C° 0 mm 4 mps 761 mmHg 48%
01:00 +13°C° 0 mm 4 mps 761 mmHg 50%
02:00 +12°C° 0 mm 4 mps 761 mmHg 53%
03:00 +11°C° 0 mm 4 mps 761 mmHg 55%
04:00 +10°C° 0 mm 5 mps 761 mmHg 56%
05:00 +10°C° 0 mm 5 mps 761 mmHg 58%
06:00 +9°C° 0 mm 5 mps 761 mmHg 60%
07:00 +12°C° 0 mm 5 mps 762 mmHg 52%
08:00 +13°C° 0 mm 5 mps 762 mmHg 44%
09:00 +15°C° 0 mm 5 mps 762 mmHg 37%
10:00 +17°C° 0 mm 6 mps 761 mmHg 31%
11:00 +20°C° 0 mm 6 mps 761 mmHg 25%
12:00 +23°C° 0 mm 7 mps 761 mmHg 19%
13:00 +23°C° 0 mm 7 mps 761 mmHg 18%
14:00 +24°C° 0 mm 7 mps 760 mmHg 18%
15:00 +24°C° 0 mm 6 mps 760 mmHg 18%
16:00 +23°C° 0 mm 6 mps 760 mmHg 21%
17:00 +21°C° 0 mm 5 mps 760 mmHg 25%
18:00 +19°C° 0 mm 5 mps 759 mmHg 28%
19:00 +17°C° 0 mm 5 mps 759 mmHg 31%
20:00 +16°C° 0 mm 5 mps 759 mmHg 34%
21:00 +15°C° 0 mm 5 mps 760 mmHg 37%
22:00 +15°C° 0 mm 5 mps 759 mmHg 39%
23:00 +14°C° 0 mm 5 mps 759 mmHg 41%
Show more

We Need Your Consent

Meteoprog and our Service Providers may store and access personal data such as cookies, device identifiers or other similar technologies on your device and process such data to personalise content and ads, as well as provide social media features and to analyse the traffic.

  • Store and/or access information on your device

    Cookies, device identifiers or other information can be stored or accessed on your device for the purposes indicated above.

  • Personalised ads and content, ad and content measurement, audience insights, and products development

    Ads and content can be personalised based on a profile. More data can be added to better personalise ads and content. Ad and content performance can be measured. Insights about the audience who saw the ads and content can be derived. Such data can be used to develop or improve user’s experience, systems and software.

By clicking ‘I Agree’ you will allow the use of indicated cookies, device identifiers, web beacons or other similar technologies. Your settings can be changed in the browser on your device.

For certain purposes, legitimate interests may be relied on, rather than consent. You can read more about this in our Privacy and Cookie Policy.